Regional Weather Roundup
Issued by NWS

Home | Current Version | Previous Version | Graphics & Text | Print | Product List | Glossary On
Versions: 1 2 3 4 5 6 7 8 9 10 11 12 13 14 15 16 17 18 19 20 21 22 23 24 25 26 27 28 29 30 31 32 33 34 35 36 37 38 39 40 41 42 43 44 45 46 47 48 49 50
000
ASUS43 KLOT 281800
RWRIL

ILLINOIS REGIONAL WEATHER ROUNDUP
NATIONAL WEATHER SERVICE CHICAGO/ROMEOVILLE IL
100 PM CDT MON JUL 28 2014

NOTE: "FAIR" INDICATES FEW OR NO CLOUDS BELOW 12,000 FEET WITH NO
SIGNIFICANT WEATHER AND/OR OBSTRUCTIONS TO VISIBILITY.

* THESE STATIONS ARE NOT UNDER NWS QUALITY CONTROL. THEY ALSO MAY NOT
  REPORT WEATHER SUCH AS PRECIPITATION OR FOG.

ILZ001-002-007-009-015-016-024-281900-
NORTHWEST ILLINOIS

CITY           SKY/WX    TMP DP  RH WIND       PRES   REMARKS
MOLINE         SUNNY     72  49  44 N9G23     30.14F
6HR MIN TEMP:  62; 6HR MAX TEMP:  72;

STERLING*      MOSUNNY   73  52  46 NE15      30.14S
$$

ILZ003-004-008-010-011-017-018-281900-
NORTH CENTRAL ILLINOIS

CITY           SKY/WX    TMP DP  RH WIND       PRES   REMARKS
ROCKFORD       MOSUNNY   72  47  40 N21G29    30.13S
6HR MIN TEMP:  57; 6HR MAX TEMP:  72;

$$

ILZ005-006-012>014-019>023-281900-
NORTHEAST ILLINOIS

CITY           SKY/WX    TMP DP  RH WIND       PRES   REMARKS
CHICAGO-OHARE  MOSUNNY   69  41  36 N21G26    30.08F
6HR MIN TEMP:  60; 6HR MAX TEMP:  70;

CHICAGO-MIDWAY MOSUNNY   69  43  38 N21G31    30.08S
6HR MIN TEMP:  62; 6HR MAX TEMP:  71;

AURORA         MOSUNNY   70  47  43 N10G21    30.10S
6HR MIN TEMP:  57; 6HR MAX TEMP:  70;

WAUKEGAN       SUNNY     66  47  50 N13G20    30.08F
6HR MIN TEMP:  56; 6HR MAX TEMP:  66;

DUPAGE AIRPORT SUNNY     71  47  42 N9G23     30.09S
6HR MIN TEMP:  59; 6HR MAX TEMP:  71;

WHEELING       SUNNY     71  45  39 N15G24    30.10F
6HR MIN TEMP:  60; 6HR MAX TEMP:  71;

NORTHERLY ISL    N/A     62  48  60 N14         N/A
$$

LMZ740>746-281900-
SOUTHERN LAKE MICHIGAN

STATION/POSITION SKY/WX   TEMP    WIND        PRES    VSBY  WAVE
                          AIR SEA DIR/SP/G                  HT/PER
                          (F)     (DEG/KT/KT) (MB)    (MI)  (FT/S)
SOUTHERN BUOY              56 60  340/ 23/ 29 1017.7R         7/ 8
WAUKEGAN HARBOR            59      20/ 19/ 21   N/A
HARRISON CRIB              59     350/ 25/ 29   N/A
BURNHAM HARBOR             62     350/ 12/ 21   N/A
CALUMET HARBOR             62     340/ 15/ 23 1017.6S
MICHIGAN CITY              59     330/ 23/ 27   N/A
MICHIGAN CITY 6N           59 67  350/ 17/ 23   N/A           8/ 7
ST. JOSEPH                 58 66  340/ 17/ 25   N/A           9/ 7
$$

ILZ025>027-034>036-040-047-049-050-058-095>099-281900-
WEST-CENTRAL ILLINOIS

CITY           SKY/WX    TMP DP  RH WIND       PRES   REMARKS
QUINCY         MOSUNNY   72  54  53 NW10      30.15F
$$

ILZ028>032-037-038-041>044-048-051>054-059>061-281900-
CENTRAL ILLINOIS

CITY           SKY/WX    TMP DP  RH WIND       PRES   REMARKS
DECATUR        MOSUNNY   73  54  51 NW12G21   30.09S
PEORIA         MOSUNNY   73  51  46 N9        30.12S
6HR MIN TEMP:  64; 6HR MAX TEMP:  73;

SPRINGFIELD    MOSUNNY   73  55  53 N13G20    30.11F
6HR MIN TEMP:  65; 6HR MAX TEMP:  74;

TAYLORVILLE    NOT AVBL
$$

ILZ033-039-045-046-055>057-062-063-281900-
EAST-CENTRAL ILLINOIS

CITY           SKY/WX    TMP DP  RH WIND       PRES   REMARKS
CHAMPAIGN      PTSUNNY   72  55  55 NW15G21   30.07S
MATTOON        PTSUNNY   73  56  54 N16       30.07S
$$

ILZ079-100>102-281900-
SOUTHWEST ILLINOIS

CITY           SKY/WX    TMP DP  RH WIND       PRES   REMARKS
BELLEVILLE     PTSUNNY   76  62  60 NW16      30.09S
CAHOKIA*       CLOUDY    77  60  55 N14       30.11S
$$

ILZ064>066-069>071-074>076-080>082-084>086-088>090-092>094-281900-
SOUTH-CENTRAL ILLINOIS

CITY           SKY/WX    TMP DP  RH WIND       PRES   REMARKS
CARBONDALE     PTSUNNY   77  62  59 NW10      30.08S
6HR MIN TEMP:  66; 6HR MAX TEMP:  78;

MARION         PTSUNNY   77  63  61 NW9       30.08F
MT. VERNON     MOSUNNY   75  61  60 N6        30.08S
$$

ILZ067-068-072-073-078-083-087-091-281900-
SOUTHEAST ILLINOIS

CITY           SKY/WX    TMP DP  RH WIND       PRES   REMARKS
LAWRENCEVILLE  PTSUNNY   76  60  57 N15       30.05R
$$

ABBREVIATIONS USED IN REMARKS
   TC - TEMPERATURE IN CELSIUS
  WCI - WIND CHILL INDEX
   HX - HEAT INDEX
  VSB - VISIBILITY
$$




USA.gov is the U.S. government's official web portal to all federal, state and local government web resources and services.